Williamstown, MA

10:02 AM EDT on September 28, 2016 (GMT -0400)
Harriman And West

Weather History for KAQW - February, 2014

Change the Weather History Date:

Monday, February 3, 2014

  Actual Average Record
Temperature  
Mean Temperature 27 °F -  
Max Temperature 30 °F 32 °F 61 °F (2016)
Min Temperature 24 °F 14 °F -13 °F (2015)
Degree Days  
Heating Degree Days 38    
Moisture  
Dew Point 22 °F    
Average Humidity 77    
Maximum Humidity 88    
Minimum Humidity 69    
Precipitation  
Precipitation 0.01 in - - ()
Sea Level Pressure  
Sea Level Pressure 30.19 in    
Wind  
Wind Speed 5 mph (West)    
Max Wind Speed 9 mph    
Max Gust Speed -    
Visibility 8 miles    
Events Snow    
Averages and records for this station are not official NWS values.
T = Trace of Precipitation, MM = Missing Value Source: NWS Daily Summary

Daily Weather History Graph

Daily Weather History Graph

Search for Another Location

Airport or City:

Trip Planner

Search our weather history database for the weather conditions in past years. The results will help you decide how hot, cold, wet, or windy it might be!

Date:

Astronomy

Feb. 03, 2014 Rise Set
Actual Time 7:04 AM EST 5:08 PM EST
Civil Twilight 6:35 AM EST 5:38 PM EST
Nautical Twilight 6:01 AM EST 6:12 PM EST
Astronomical Twilight 5:28 AM EST 6:45 PM EST
Moon 8:58 AM EST (2/3) 10:03 PM EST (2/3)
Length of Visible Light 11h 03m
Length of Day
10h 03m
Waxing Crescent, 19% of the Moon is Illuminated
Feb 3
Waxing Crescent
Feb 6
First Quarter
Feb 14
Full
Feb 22
Last Quarter
Mar 1
New

Hourly Weather History & Observations

Time (EST) Temp. Windchill Dew Point Humidity Pressure Visibility Wind Dir Wind Speed Gust Speed Precip Events Conditions
12:52 AM 30.9 °F 24.3 °F 24.1 °F 76% 30.14 in 10.0 mi Variable 6.9 mph - N/A   Overcast
1:52 AM 30.9 °F 22.8 °F 24.1 °F 76% 30.14 in 10.0 mi West 9.2 mph - N/A   Overcast
2:52 AM 30.9 °F 23.5 °F 24.1 °F 76% 30.16 in 10.0 mi West 8.1 mph - N/A   Overcast
3:52 AM 30.0 °F 25.2 °F 23.0 °F 75% 30.14 in 10.0 mi West 4.6 mph - N/A   Overcast
4:52 AM 30.0 °F 26.5 °F 21.9 °F 72% 30.16 in 10.0 mi North 3.5 mph - N/A   Overcast
5:52 AM 28.9 °F 25.2 °F 21.9 °F 75% 30.18 in 10.0 mi NW 3.5 mph - N/A   Overcast
6:52 AM 28.9 °F 25.2 °F 21.9 °F 75% 30.18 in 10.0 mi NNW 3.5 mph - N/A   Overcast
7:52 AM 28.9 °F 25.2 °F 21.9 °F 75% 30.17 in 10.0 mi WNW 3.5 mph - N/A   Overcast
8:52 AM 28.9 °F 25.2 °F 21.0 °F 72% 30.17 in 10.0 mi West 3.5 mph - N/A   Overcast
9:27 AM 30.0 °F - 21.9 °F 72% 30.17 in 10.0 mi North - - N/A   Overcast
9:38 AM 30.0 °F 26.5 °F 21.9 °F 72% 30.18 in 10.0 mi WNW 3.5 mph - N/A   Overcast
9:52 AM 30.0 °F 25.2 °F 21.9 °F 72% 30.21 in 9.0 mi Variable 4.6 mph - N/A   Overcast
10:52 AM 30.0 °F - 21.0 °F 69% 30.21 in 10.0 mi Calm Calm - N/A   Overcast
11:39 AM 28.9 °F 22.8 °F 23.0 °F 78% 30.18 in 1.8 mi West 5.8 mph - 0.00 in Snow Light Snow
11:50 AM 28.4 °F 23.3 °F 24.8 °F 86% 30.17 in 1.2 mi West 4.6 mph - 0.00 in Snow Light Snow
11:52 AM 28.0 °F 22.8 °F 24.1 °F 85% 30.20 in 1.2 mi West 4.6 mph - 0.00 in Snow Light Snow
12:07 PM 28.0 °F 22.8 °F 24.1 °F 85% 30.16 in 0.8 mi West 4.6 mph - 0.00 in Snow Light Snow
12:19 PM 28.0 °F 21.7 °F 25.0 °F 88% 30.16 in 1.0 mi West 5.8 mph - 0.00 in Snow Light Snow
12:52 PM 28.0 °F 21.7 °F 24.1 °F 85% 30.18 in 0.8 mi West 5.8 mph - 0.01 in Snow Light Snow
1:07 PM 28.0 °F 22.8 °F 24.1 °F 85% 30.14 in 1.5 mi West 4.6 mph - 0.00 in Snow Light Snow
1:15 PM 28.0 °F 24.2 °F 24.1 °F 85% 30.15 in 2.5 mi West 3.5 mph - 0.00 in Snow Light Snow
1:22 PM 28.0 °F 24.2 °F 24.1 °F 85% 30.14 in 4.0 mi WSW 3.5 mph - 0.00 in Snow Light Snow
1:33 PM 28.0 °F 24.2 °F 23.0 °F 81% 30.14 in 7.0 mi West 3.5 mph - 0.00 in   Overcast
1:52 PM 28.0 °F 24.2 °F 23.0 °F 81% 30.17 in 10.0 mi WSW 3.5 mph - 0.00 in   Overcast
2:52 PM 28.9 °F 23.9 °F 21.0 °F 72% 30.17 in 10.0 mi West 4.6 mph - N/A   Overcast
3:52 PM 28.9 °F 23.9 °F 23.0 °F 78% 30.19 in 10.0 mi Variable 4.6 mph - N/A   Overcast
4:52 PM 28.9 °F 25.2 °F 21.9 °F 75% 30.20 in 10.0 mi Variable 3.5 mph - N/A   Overcast
5:52 PM 28.0 °F 24.2 °F 21.0 °F 75% 30.21 in 10.0 mi Variable 3.5 mph - N/A   Overcast
6:26 PM 28.0 °F 22.8 °F 21.0 °F 75% 30.19 in 10.0 mi Variable 4.6 mph - N/A   Overcast
6:52 PM 27.0 °F 20.5 °F 19.9 °F 75% 30.23 in 10.0 mi West 5.8 mph - N/A   Overcast
7:52 PM 27.0 °F 20.5 °F 19.9 °F 75% 30.26 in 10.0 mi WNW 5.8 mph - N/A   Overcast
8:30 PM 27.0 °F 21.6 °F 19.0 °F 72% 30.25 in 10.0 mi Variable 4.6 mph - N/A   Overcast
8:52 PM 27.0 °F - 19.0 °F 72% 30.29 in 10.0 mi Calm Calm - N/A   Overcast
9:52 PM 26.1 °F 21.9 °F 18.0 °F 71% 30.30 in 10.0 mi Variable 3.5 mph - N/A   Overcast
10:52 PM 24.1 °F 19.7 °F 17.1 °F 75% 30.31 in 10.0 mi WSW 3.5 mph - N/A   Overcast
11:52 PM 24.1 °F 19.7 °F 17.1 °F 75% 30.31 in 10.0 mi WNW 3.5 mph - N/A   Overcast